RH
96 96 95 79 57 58 57 43 31 32 29 20 16 16 14 11 10 8 7 8 8 8 7 8 7 8 9 10 12 15 13 12 9 8 18 16 11 13 13 13 17 16 20 21 25 22 24
97 96 81 54 53 37 32 27 25 21 18 16 15 13 12 10 8 8 11 10 9 10 9 7 7 9 12 14 14 17 13 12 11 18 16 16 14 12 14 18 17 21 22 22 23 20 21
97 94 79 54 28 23 23 21 18 17 17 15 13 12 10 10 8 11 10 10 10 9 9 8 6 7 12 14 16 14 14 16 15 15 17 19 18 14 14 15 19 18 16 20 19 19 21
94 75 57 44 31 27 24 23 20 16 16 15 15 14 12 10 8 10 9 10 12 8 9 9 8 8 14 12 15 18 14 17 16 14 16 16 19 18 17 15 13 14 14 18 19 21 22
74 52 27 29 30 27 25 23 18 18 16 16 16 15 13 14 12 11 7 8 13 8 8 10 11 12 14 13 17 19 18 22 21 19 16 14 18 19 17 15 18 14 22 16 16 24 23
56 30 19 21 21 18 21 23 22 17 16 16 17 17 16 14 14 11 9 8 10 11 10 12 12 20 15 16 21 20 19 18 20 18 17 19 16 14 14 17 32 18 22 19 19 17 22
29 24 20 16 18 19 20 23 22 18 14 17 17 18 18 16 14 10 11 14 19 20 19 19 18 17 17 20 17 20 23 23 18 14 16 19 20 21 19 19 19 25 30 34 22 23 26
24 22 20 19 16 17 18 18 22 23 20 15 18 16 18 18 14 12 14 27 36 24 23 22 20 18 20 22 23 20 21 17 18 18 17 18 26 24 24 25 26 29 38 43 24 26 27
23 20 18 19 18 18 18 19 20 22 27 23 18 16 15 19 13 15 25 36 26 24 25 27 20 19 20 20 27 26 22 21 22 22 23 23 23 27 26 24 27 28 37 35 39 27 33
27 18 16 15 15 16 19 22 24 26 28 30 19 18 16 20 17 16 29 27 31 38 31 30 22 22 20 22 28 28 27 24 26 28 25 25 25 26 24 20 25 47 26 33 32 46 56
41 32 22 12 13 12 11 12 17 22 25 32 20 21 19 17 15 25 20 20 23 49 62 29 23 19 22 24 30 27 27 21 28 26 34 30 26 26 24 22 27 28 35 30 39 54 58
56 45 29 14 10 9 9 9 9 10 16 30 23 24 23 20 20 20 18 21 45 56 74 30 25 26 24 27 27 26 24 23 27 28 25 28 31 32 30 31 30 30 32 39 40 43 66
56 49 31 17 14 12 11 10 9 9 10 24 30 23 27 28 30 26 29 41 51 51 29 32 31 25 26 28 29 26 29 50 50 81 54 37 30 35 36 38 32 40 62 92 90 93 58
64 54 39 22 18 17 18 14 11 9 9 18 34 26 32 31 32 34 39 38 54 33 30 26 25 29 29 30 31 30 29 31 35 41 51 54 48 39 39 55 58 45 61 78 75 50 41
66 57 41 38 37 40 36 20 14 10 9 18 34 29 35 36 35 40 43 67 37 36 27 29 30 32 33 28 34 32 40 40 49 57 80 61 48 42 45 41 54 52 58 40 67 55 54
60 53 49 51 52 52 48 41 23 12 9 20 38 33 42 38 34 47 46 43 36 29 24 25 38 31 41 32 38 41 42 56 54 58 56 53 80 36 49 48 43 56 52 68 70 73 73
66 65 65 66 66 64 59 52 43 17 10 21 44 44 47 38 34 40 74 44 36 30 28 30 30 41 46 42 34 39 52 50 48 49 45 60 66 53 48 63 63 56 66 58 63 53 69
73 72 72 72 72 70 67 64 56 37 12 23 51 35 46 40 47 44 48 36 31 31 29 31 32 42 34 32 41 36 40 36 47 50 56 59 62 75 55 76 67 66 62 61 54 72 58
81 81 80 79 78 76 73 71 67 60 34 37 59 55 45 46 67 54 40 34 33 31 30 30 31 29 33 35 59 36 32 41 41 39 63 70 74 79 78 79 70 70 69 68 65 60 69
85 85 85 86 86 86 86 81 75 68 52 35 70 71 46 48 52 83 61 43 39 34 31 29 30 30 32 32 31 44 34 42 43 36 48 48 64 79 68 68 73 84 75 72 63 72 62
92 92 91 92 92 91 90 88 85 76 62 25 69 68 68 69 49 50 58 62 44 46 34 29 32 33 53 51 34 38 34 38 46 42 56 54 72 50 51 52 61 70 71 79 72 59 66
97 98 99 100 100 100 100 98 94 89 70 26 80 90 74 58 47 48 59 60 50 45 50 40 41 37 34 54 48 59 40 36 38 53 58 63 81 71 70 52 69 82 71 76 78 70 71
98 98 99 99 96 93 94 99 98 97 86 32 60 64 90 64 54 58 50 53 62 51 44 37 40 45 41 36 31 30 29 30 33 50 60 71 71 67 71 50 56 84 81 75 74 75 68
100 99 100 100 100 99 99 100 100 99 99 73 36 47 93 82 64 58 55 63 62 52 65 42 39 41 40 35 33 35 37 39 36 50 45 63 64 60 73 57 66 92 67 69 69 73 76
100 98 94 92 91 90 90 90 99 100 100 99 66 43 92 78 60 52 56 64 56 51 51 42 41 35 37 35 45 55 54 50 54 51 52 45 42 66 75 68 52 45 58 62 62 63 64
100 100 98 96 93 90 89 88 86 99 100 100 96 49 51 91 65 44 53 65 75 80 72 45 46 45 41 44 53 78 72 61 66 61 54 50 47 58 73 84 78 53 39 39 53 72 57
57 64 72 83 89 92 91 88 86 93 100 100 99 90 65 95 78 63 77 77 74 76 89 69 66 51 40 51 63 66 59 49 62 61 81 71 68 76 69 82 59 38 37 39 60 64 57
75 56 39 32 39 70 87 88 87 88 100 100 99 89 82 100 88 64 66 76 69 80 91 90 90 83 78 82 64 62 70 65 61 50 67 76 81 81 72 90 82 38 40 50 49 44 50
75 88 80 69 58 41 47 82 84 82 89 100 100 100 82 90 96 77 56 51 50 56 84 95 98 86 81 85 91 94 94 89 70 88 56 81 69 66 54 51 37 36 39 35 38 47 50
Wind_Speed
11 12 12 12 13 12 12 12 10 10 10 10 9 7 7 6 5 5 8 11 10 10 10 13 14 9 4 8 6 18 20 21 13 18 22 6 8 3 5 5 3 6 4 3 3 3 1
12 12 13 13 12 13 14 14 14 11 11 9 8 7 7 5 5 6 8 10 10 9 8 9 7 15 4 9 10 19 16 17 22 16 18 16 7 9 9 5 4 3 4 4 2 2 3
12 12 13 13 13 13 13 13 15 12 11 9 9 9 7 6 5 5 7 9 10 8 9 8 6 2 20 8 9 24 14 14 17 15 6 11 5 4 3 5 4 5 3 2 3 6 2
12 12 13 14 14 14 14 13 12 14 12 10 9 8 8 6 4 5 7 7 11 4 8 8 7 5 5 5 9 23 16 4 8 12 7 6 7 10 4 5 3 2 1 5 2 8 0
11 12 13 13 13 14 15 14 12 10 12 14 12 9 6 7 7 9 4 4 15 2 5 8 5 2 4 5 7 18 16 8 7 5 10 5 5 5 2 1 2 7 4 5 5 3 6
11 12 12 13 14 14 15 16 15 13 11 13 16 10 7 7 10 7 3 3 3 7 4 3 9 1 5 7 9 18 13 10 4 3 2 6 5 4 9 10 5 6 6 4 8 5 6
10 11 12 12 13 14 16 18 17 15 13 14 18 13 10 7 16 4 1 2 1 1 18 6 2 2 5 14 4 20 13 7 2 7 5 5 10 8 6 6 3 4 5 11 8 4 12
9 10 11 12 12 13 15 17 19 18 16 14 17 14 11 6 14 5 5 6 2 4 9 5 2 1 2 7 5 21 18 5 8 7 4 3 5 1 1 1 3 4 6 8 9 1 9
8 9 10 11 12 13 15 16 18 20 18 15 15 15 13 4 6 16 16 8 6 3 3 3 3 3 4 6 5 13 14 4 8 7 11 6 3 2 4 2 6 4 4 5 8 14 2
7 7 8 9 11 12 14 15 17 19 20 17 13 16 13 2 3 5 5 5 3 2 2 8 5 4 2 2 4 5 8 3 5 4 3 5 2 2 4 3 2 4 1 5 14 10 4
6 6 7 8 9 11 13 14 16 19 21 17 10 16 9 11 4 4 3 2 2 1 2 6 3 3 3 6 6 8 6 2 4 2 2 2 1 2 4 2 0 4 5 8 3 3 3
5 6 7 8 9 10 12 14 16 18 20 17 9 14 12 5 9 5 1 1 1 0 2 4 3 7 3 5 4 7 4 8 2 0 3 2 1 2 5 4 6 7 4 3 3 2 2
5 6 7 8 9 11 12 14 15 18 20 17 9 7 16 9 2 2 1 1 0 4 1 6 4 6 3 6 4 10 7 8 6 5 7 2 2 2 3 5 2 3 4 4 3 2 4
5 6 7 8 9 11 13 14 16 17 19 16 7 5 10 13 5 2 1 1 6 1 2 1 2 4 3 7 3 6 2 3 6 4 2 6 4 4 5 3 3 4 2 2 6 7 13
4 6 7 8 10 12 15 15 16 18 21 14 5 2 4 14 6 1 2 5 1 0 1 5 2 2 2 2 3 4 4 2 3 5 3 6 4 3 6 2 2 2 1 1 1 1 4
5 6 7 9 11 13 16 18 20 20 23 13 2 1 5 15 5 1 2 3 1 1 1 1 2 2 3 7 6 7 3 2 3 0 1 2 7 2 4 2 6 2 3 1 1 5 7
5 6 7 9 11 13 16 19 21 22 24 12 2 1 7 13 4 2 4 2 1 1 1 3 2 1 0 3 2 2 1 3 3 4 1 3 2 1 2 6 5 3 2 1 1 2 4
3 4 5 7 10 13 16 19 22 24 25 9 2 1 9 9 3 2 2 1 1 2 1 1 2 2 2 1 3 2 3 2 7 7 2 1 1 7 3 3 2 1 1 4 3 3 1
1 2 4 6 8 10 13 16 20 24 26 6 2 2 6 5 3 2 2 2 1 3 2 2 2 1 1 2 3 3 3 3 7 6 3 6 2 7 3 2 1 5 4 1 2 1 9
3 4 5 6 7 9 11 14 17 21 25 5 1 2 3 6 2 3 2 1 2 1 2 1 2 2 2 3 5 3 2 3 7 4 5 6 3 8 12 14 1 7 8 7 5 5 5
8 8 8 9 9 10 10 12 14 17 22 5 5 2 1 3 3 2 0 1 2 2 0 2 2 6 4 2 3 5 4 4 5 6 4 2 6 8 20 22 17 24 18 11 14 16 11
11 11 11 11 11 11 11 12 13 13 15 6 1 2 1 2 1 2 0 4 4 2 5 4 5 5 9 6 7 8 3 5 4 6 6 2 4 2 12 5 11 15 13 18 20 19 22
14 14 14 15 14 14 14 13 12 11 7 3 3 3 2 1 1 1 1 2 4 3 4 1 5 3 7 11 9 8 5 2 2 6 9 5 3 4 8 5 11 8 8 13 8 10 8
14 14 14 15 15 15 15 15 13 12 9 5 5 5 3 3 3 5 4 5 6 5 3 1 3 4 1 2 1 4 6 5 6 3 3 6 3 3 7 9 4 4 4 4 12 11 20
9 9 11 11 11 13 15 15 15 16 15 15 10 6 3 3 2 4 8 6 1 1 3 3 5 1 0 1 2 4 3 3 3 2 4 3 4 5 4 5 12 13 3 2 1 7 13
2 4 7 8 9 10 10 11 12 15 17 20 16 12 1 4 6 2 3 4 4 3 0 2 2 3 1 0 1 4 3 1 3 2 2 3 5 5 2 4 8 7 3 5 4 11 7
6 7 8 9 9 9 9 9 9 8 14 19 12 19 6 3 3 5 4 4 5 2 3 1 3 3 1 2 3 6 4 2 4 5 5 3 5 10 10 7 11 14 3 5 9 15 21
5 5 6 8 9 10 10 9 8 8 8 15 10 19 11 3 3 12 10 5 3 3 5 4 2 2 1 3 4 4 4 3 3 4 6 8 6 6 5 6 10 6 5 6 14 19 19
5 6 7 8 9 10 11 11 9 8 7 12 7 12 21 3 3 6 14 12 11 9 5 5 2 4 5 3 3 1 4 3 6 5 4 5 8 5 11 9 7 8 14 16 18 19 21
Wind_Direction
76 72 70 68 63 56 50 46 44 45 46 52 59 55 42 43 44 34 15 5 1 2 2 13 12 25 47 55 27 335 353 6 14 30 36 22 46 81 87 85 83 75 121 104 131 73 19
75 70 68 66 62 58 54 49 46 50 50 54 50 38 31 29 26 17 13 17 19 17 16 21 40 41 62 67 345 351 358 18 29 31 33 32 59 72 89 60 39 87 112 108 126 13 319
76 70 65 61 58 54 47 43 45 44 44 44 39 32 30 30 28 25 20 15 17 28 27 20 21 61 63 74 11 8 11 25 28 33 45 38 56 67 110 113 122 120 130 150 58 346 315
77 72 66 60 56 50 45 40 38 40 40 34 22 20 25 19 16 356 351 12 360 312 16 13 30 72 78 5 5 4 12 18 20 35 64 44 61 85 40 124 124 34 170 338 118 355 140
76 73 69 62 56 52 45 39 37 32 33 32 22 17 11 11 348 325 305 351 20 89 0 18 28 44 57 353 11 359 3 353 345 36 45 51 63 63 105 320 96 39 318 320 296 75 320
76 73 71 62 55 50 41 35 35 31 26 20 13 19 8 359 351 327 282 293 347 52 20 30 32 123 50 339 321 346 350 4 7 329 135 39 52 63 33 21 26 320 310 280 275 347 327
78 70 65 62 55 48 42 37 35 31 28 22 16 13 12 18 8 35 60 114 200 23 38 54 25 48 340 327 347 5 352 331 6 60 38 31 58 41 33 47 78 291 272 273 274 340 330
79 70 64 55 53 46 41 38 36 31 22 14 13 12 14 23 27 35 66 69 49 116 88 39 59 58 358 345 339 3 5 36 29 43 336 110 69 64 176 180 315 272 274 288 299 164 323
78 67 59 51 46 40 38 34 31 28 19 14 13 12 9 15 31 47 73 85 93 99 71 46 46 23 346 2 49 347 8 12 36 48 29 71 99 189 225 226 331 253 255 317 289 319 294
70 62 54 44 39 35 31 28 25 23 18 14 17 13 16 50 64 56 55 67 63 61 109 7 16 36 331 5 64 349 12 7 51 63 50 79 145 242 237 259 344 300 25 312 313 334 312
64 48 42 41 34 29 25 23 21 17 14 12 19 18 25 46 89 61 121 55 21 309 107 358 4 332 360 44 317 32 18 18 53 44 290 59 320 282 257 21 299 333 323 309 292 255 301
57 43 38 34 30 27 21 19 14 12 10 10 16 23 24 31 55 82 84 40 31 176 316 14 323 349 348 31 27 311 13 46 30 190 50 88 84 350 339 294 243 315 285 218 213 243 245
59 42 39 33 27 22 17 12 9 7 5 4 12 19 36 47 53 19 53 230 98 69 35 345 346 5 360 349 14 15 24 22 21 353 9 315 133 86 357 312 168 302 282 308 313 296 305
56 35 33 32 24 19 12 7 3 1 359 358 5 17 27 35 26 30 124 224 68 38 356 45 318 298 16 354 46 15 31 53 60 338 345 359 315 16 2 56 327 8 353 14 305 314 307
57 43 44 37 31 23 16 9 3 358 355 354 358 19 27 1 9 61 244 51 83 164 354 336 271 317 22 72 338 340 53 62 27 359 35 341 270 138 39 76 347 37 245 18 142 206 289
69 60 52 40 30 23 18 13 8 1 354 356 7 63 19 355 8 53 65 104 112 27 34 275 19 10 333 349 344 13 16 139 142 3 268 155 288 105 143 144 68 304 100 236 131 302 298
84 67 50 36 27 21 17 14 10 6 357 360 42 201 347 355 26 55 71 77 140 93 335 7 25 345 76 314 316 313 312 162 185 149 77 147 230 191 172 196 165 150 196 110 338 287 271
81 48 31 24 19 20 19 16 13 10 6 2 17 12 344 358 46 41 75 55 108 145 71 99 93 126 212 199 260 263 261 233 157 161 161 127 239 274 314 55 355 325 243 205 232 200 242
30 6 4 1 2 5 8 10 12 11 9 358 46 319 346 9 81 73 141 138 173 156 177 172 168 246 192 246 295 236 239 82 157 169 178 176 200 294 214 133 182 234 171 137 97 349 216
283 301 315 326 335 343 351 358 5 6 5 29 59 27 24 53 34 102 155 151 165 156 161 151 126 150 178 233 219 282 246 143 189 189 167 175 243 236 261 286 159 242 181 204 212 214 225
276 284 292 301 311 322 333 342 350 1 4 29 16 68 39 3 38 59 40 175 178 206 198 191 193 230 188 243 248 238 216 169 181 197 150 225 253 246 265 269 269 269 260 194 207 224 234
274 280 286 293 299 306 312 318 329 347 1 50 82 133 109 84 359 313 177 214 209 192 168 192 218 181 194 219 223 292 234 209 260 163 181 175 274 317 291 286 239 257 250 232 228 250 257
275 279 281 281 284 288 292 300 305 315 350 69 115 110 121 106 104 304 259 204 228 160 195 244 194 177 220 243 272 294 289 354 166 171 185 185 276 324 268 122 293 272 222 191 190 216 210
269 272 276 277 279 282 281 281 282 281 269 236 183 142 98 226 211 201 204 203 223 219 249 112 180 187 42 36 244 104 92 89 172 129 189 171 202 245 283 309 275 283 149 217 208 239 215
267 275 282 284 289 293 289 278 262 262 258 231 217 182 143 226 184 231 220 213 225 199 234 220 215 199 301 305 292 292 184 147 82 60 196 223 219 268 284 304 292 281 132 191 196 285 253
274 297 294 304 316 315 312 310 293 262 255 245 237 213 151 128 223 159 161 162 193 195 16 256 342 343 306 48 190 249 261 335 186 194 38 219 253 238 21 270 287 313 146 167 167 295 128
289 295 301 304 309 311 313 317 326 303 258 249 239 216 158 176 238 152 186 184 149 125 129 203 190 183 270 180 221 229 234 133 220 194 177 201 229 230 233 258 273 270 248 166 307 316 325
356 344 321 309 309 305 301 306 324 329 279 249 245 214 195 195 243 198 178 158 131 180 166 139 135 177 102 208 225 224 210 186 230 157 191 190 214 194 187 220 276 161 136 280 306 307 310
336 343 339 341 327 309 316 305 306 317 325 259 227 220 210 211 279 241 231 233 234 184 131 187 249 170 189 188 212 166 219 173 221 251 192 251 212 258 207 239 289 242 266 290 289 298 298